Showing default

UKUBE 1, 40074

Orbit data source: Space-Track

UKUBE 1, 40074 is a payload satellite owned by UKSA (UK) in SSO that was launched on Tue, 08 Jul 2014 UTC via a SOYUZ-2-1B launch vehicle from the Tyuratam Missile And Space Complex (TTMTR). Payload-class satellites include a variety of spacecraft equipped with specific instruments for various scientific and technological missions. These include communications satellites like Starlink; space stations such as the ISS; scientific satellites like the Hubble; Earth observation satellites from companies like Planet Labs, Umbra, and HawkEye 360; GPS; miniature CubeSats for education and research; and military/defense satellites.

Loading next visibility...
Identifier
40074, 2014-037F
Orbit
SSO
Country
Flag of UKUK
Related business
Manufacturer
ClydeSpace
Mission
Operational Civil Technology
Bus & Motor
CUBESAT 3U, Unknown motor
Mass
4 kg wet, 4 kg dry
Launch date (UTC)
2014-07-08 (12 years ago)
Launch vehicle
SOYUZ-2-1B
Launch site
Tyuratam Missile And Space Complex (TTMTR)
Object type
Payload
Rocket body
Debris
Shape & HBR
Box + 1 Pan, 0.2 m
Radar Cross Section
0.038 m², Medium (>0.1 m² and < 1m²)

Expand to show TLE details & history
Last TLE update: 16 hours ago

TLE from 16 hours ago
0 UKUBE 1
1 40074U 14037F   26262.79806562  .00005089  00000-0  27849-3 0  9996
2 40074  98.4270 276.1250 0001599 148.3450 211.7875 15.14785129662872
Epoch: 2026-09-19T19:09Z
TLE epoch observation values (Epoch: 2026-09-19T19:09:12.869Z)
Latitude
-0.00009°
Longitude
-9.88004°
Altitude
525.621 km
Speed
7.6 km/s
True Right ascension
18h 24m 30s
True Declination
0° 00' 00"
Sunlit
Object was in daylight at epoch
Visualization orbit readout
Latitude
Unknown
Longitude
Unknown
Altitude
Unknown
Speed
Unknown
Apparent Right ascension
Unknown
Apparent Declination
Unknown
Sunlit
N/A
Visualization observer readout
Local Sidereal Time
04:19:44
Azimuth
Unknown
Elevation
Unknown
Doppler factor
Unknown
Orbital elements
Apogee altitude
519.753 km
Perigee altitude
517.547 km
Semi-major axis
6,896.787 km
Eccentricity
0.00016
Inclination
98.427°
RAAN
276.125°
Arg. of periapsis
148.345°
True anomaly
211.77785°
Mean anomaly
211.7875°
Eccentric anomaly
211.78267°
Mean motion
3.78942 °/min
Orbital period
95 mins
BSTAR
0.00027849
Loading maneuver chart data...
Computing Atmospheric mass density...
Loading historical data...
Loading historical data...
Loading historical data...
Loading historical data...
Loading historical data...
Loading historical data...
Loading historical data...

Documentation

Showing up to 5 results
|